This demonstration page uses our WeatherBlox Daily Observations layout. Learn more.

Hourly Observations for October 12, 2016

Temp ( °F °C ) Dew Point ( °F °C ) Humidity (%) Winds ( mph kmh ) Pressure ( in mb ) Visibility ( mi km ) Precip ( " mm )
12:15 am 00:15 Mostly Cloudy 44 6.5 35 1.9 73 73 NNE 13 20 30.18 1022 10 16.09344 0 0
12:35 am 00:35 Partly Cloudy 44 6.5 35 1.7 72 72 N 9 15 30.18 1022 10 16.09344 0 0
12:55 am 00:55 Partly Cloudy 43 6.3 35 1.7 73 73 NNE 15 24 30.18 1022 10 16.09344 0 0
1:15 am 01:15 Mostly Cloudy 43 6.2 34 1.3 71 71 N 13 20 30.18 1022 10 16.09344 0 0
1:35 am 01:35 Cloudy with Light Drizzle 43 5.9 35 1.5 74 74 N 16 26 30.18 1022 10 16.09344 0 0
1:55 am 01:55 Mostly Cloudy with Light Rain 42 5.5 35 1.5 76 76 N 15 24 30.18 1022 10 16.09344 0 0
2:15 am 02:15 Partly Cloudy 41 5.1 36 2 81 81 N 13 20 30.18 1022 10 16.09344 0 0
2:35 am 02:35 Partly Cloudy 41 5.1 36 2 81 81 N 14 22 30.18 1022 10 16.09344 0 0
2:55 am 02:55 Mostly Cloudy 41 5.1 36 2 81 81 N 12 19 30.18 1022 10 16.09344 0 0
3:15 am 03:15 Cloudy 41 5.1 35 1.8 79 79 N 16 26 30.18 1022 10 16.09344 0 0
3:35 am 03:35 Cloudy 41 5 36 2.1 82 82 N 16 26 30.18 1022 10 16.09344 0 0
3:55 am 03:55 Cloudy 40 4.5 36 2.1 85 85 N 20 31 30.18 1022 10 16.09344 0 0
4:15 am 04:15 Cloudy 39 4 35 1.5 84 84 N 20 31 30.24 1024 10 16.09344 0 0
4:35 am 04:35 Cloudy 39 4 35 1.5 84 84 N 14 22 30.24 1024 10 16.09344 0 0
4:55 am 04:55 Cloudy with Rain 39 3.8 35 1.4 85 85 N 16 26 30.27 1025 10 16.09344 0 0
5:15 am 05:15 Cloudy with Rain 38 3.5 35 1.8 89 89 N 14 22 30.27 1025 7 11.265408 0.02 0.508
5:35 am 05:35 Cloudy with Light Rain 38 3.5 35 1.8 89 89 N 10 17 30.3 1026 7 11.265408 0.04 1.016
5:55 am 05:55 Cloudy with Light Rain 38 3.5 35 1.8 89 89 N 13 20 30.3 1026 10 16.09344 0.04 1.016
6:15 am 06:15 Cloudy with Light Rain 38 3.5 35 1.8 89 89 N 13 20 30.3 1026 10 16.09344 0.01 0.254
6:35 am 06:35 Cloudy with Light Rain 38 3.5 35 1.8 89 89 NNW 10 17 30.33 1027 10 16.09344 0.01 0.254
6:55 am 06:55 Mostly Cloudy with Light Drizzle 38 3.5 35 1.8 89 89 N 12 19 30.3 1026 10 16.09344 0.01 0.254
7:15 am 07:15 Mostly Cloudy with Light Rain 38 3.3 35 1.6 89 89 N 13 20 30.33 1027 10 16.09344 0 0
7:35 am 07:35 Partly Cloudy 38 3.2 35 1.5 89 89 N 12 19 30.33 1027 10 16.09344 0 0
7:55 am 07:55 Sunny 37 3 34 1 87 87 N 14 22 30.33 1027 10 16.09344 0 0
8:15 am 08:15 Sunny 37 2.8 33 0.7 86 86 N 12 19 30.36 1028 10 16.09344 0 0
8:35 am 08:35 Sunny 37 2.6 33 0.8 88 88 N 9 15 30.36 1028 10 16.09344 0 0
8:55 am 08:55 Sunny 37 3 33 0.8 86 86 N 9 15 30.36 1028 10 16.09344 0 0
9:15 am 09:15 Mostly Cloudy 38 3.2 34 1 86 86 N 14 22 30.39 1029 10 16.09344 0 0
9:35 am 09:35 Cloudy 38 3.3 33 0.6 83 83 N 8 13 30.39 1029 10 16.09344 0 0
9:55 am 09:55 Mostly Cloudy 39 3.7 33 0.5 80 80 N 10 17 30.42 1030 10 16.09344 0 0
10:15 am 10:15 Mostly Cloudy 38 3.5 32 0.2 79 79 N 10 17 30.42 1030 10 16.09344 0 0
10:35 am 10:35 Mostly Cloudy 39 4.1 33 0.3 77 77 N 13 20 30.42 1030 10 16.09344 0 0
10:55 am 10:55 Cloudy 40 4.3 32 0.1 74 74 NNW 12 19 30.42 1030 10 16.09344 0 0
11:15 am 11:15 Cloudy 41 5.1 32 0 70 70 N 12 19 30.42 1030 10 16.09344 0 0
11:35 am 11:35 Cloudy 41 5.1 32 0 70 70 N 8 13 30.42 1030 10 16.09344 0 0
11:55 am 11:55 Cloudy 41 5.2 32 -0.2 68 68 NNW 9 15 30.42 1030 10 16.09344 0 0
12:15 pm 12:15 Cloudy 42 5.4 32 0 68 68 N 10 17 30.42 1030 10 16.09344 0 0
12:35 pm 12:35 Cloudy 42 5.7 31 -0.3 66 66 N 10 17 30.42 1030 10 16.09344 0 0
12:55 pm 12:55 Cloudy 42 5.7 31 -0.3 66 66 N 10 17 30.42 1030 10 16.09344 0 0
1:15 pm 13:15 Cloudy 43 6.2 32 -0.1 64 64 NNW 13 20 30.36 1028 10 16.09344 0 0
1:35 pm 13:35 Cloudy 44 6.5 32 -0.1 63 63 NNW 9 15 30.36 1028 10 16.09344 0 0
1:55 pm 13:55 Mostly Cloudy 44 6.8 31 -0.4 60 60 N 9 15 30.36 1028 10 16.09344 0 0
2:15 pm 14:15 Mostly Cloudy 45 7.4 32 -0.1 59 59 NNW 6 9 30.36 1028 10 16.09344 0 0
2:35 pm 14:35 Partly Cloudy 45 7.2 31 -0.3 59 59 N 9 15 30.33 1027 10 16.09344 0 0
2:55 pm 14:55 Partly Cloudy 46 7.8 32 0 58 58 N 5 7 30.33 1027 10 16.09344 0 0
3:15 pm 15:15 Sunny 46 7.7 31 -0.3 57 57 NNW 10 17 30.33 1027 10 16.09344 0 0
3:35 pm 15:35 Sunny 47 8.1 31 -0.6 55 55 NNW 7 11 30.33 1027 10 16.09344 0 0
3:55 pm 15:55 Sunny 47 8.1 31 -0.8 54 54 NNW 7 11 30.33 1027 10 16.09344 0 0
4:15 pm 16:15 Sunny 47 8.2 30 -1 53 53 N 3 6 30.33 1027 10 16.09344 0 0
4:35 pm 16:35 Sunny 48 8.7 31 -0.8 52 52 NW 7 11 30.3 1026 10 16.09344 0 0
4:55 pm 16:55 Sunny 47 8.6 30 -1.2 51 51 N 6 9 30.27 1025 10 16.09344 0 0
5:15 pm 17:15 Sunny 48 9 30 -1 50 50 NNW 5 7 30.27 1025 10 16.09344 0 0
5:35 pm 17:35 Sunny 48 8.8 30 -1.1 50 50 N 5 7 30.27 1025 10 16.09344 0 0
5:55 pm 17:55 Sunny 48 8.7 30 -1.1 51 51 NNW 5 7 30.27 1025 10 16.09344 0 0
6:15 pm 18:15 Sunny 47 8.5 30 -1 52 52 N 3 6 30.27 1025 10 16.09344 0 0
6:35 pm 18:35 Sunny 46 7.9 30 -1 54 54 Calm 30.3 1026 10 16.09344 0 0
6:55 pm 18:55 Sunny 44 6.5 30 -1 59 59 Calm 30.3 1026 10 16.09344 0 0
7:15 pm 19:15 Clear 41 5.1 30 -1.1 65 65 Calm 30.3 1026 10 16.09344 0 0
7:35 pm 19:35 Clear 40 4.3 29 -1.6 66 66 Calm 30.33 1027 10 16.09344 0 0
7:55 pm 19:55 Clear 39 3.9 29 -1.6 68 68 Calm 30.33 1027 10 16.09344 0 0
8:15 pm 20:15 Clear 38 3.3 29 -1.5 71 71 Calm 30.33 1027 10 16.09344 0 0
8:35 pm 20:35 Clear 36 2.1 29 -1.5 77 77 ESE 3 6 30.33 1027 10 16.09344 0 0
8:55 pm 20:55 Clear 36 2.2 30 -1.2 78 78 Calm 30.36 1028 10 16.09344 0 0
9:15 pm 21:15 Clear 35 1.6 29 -1.7 79 79 ESE 5 7 30.39 1029 10 16.09344 0 0
9:35 pm 21:35 Clear 35 1.7 29 -1.7 78 78 SE 3 6 30.39 1029 10 16.09344 0 0
9:55 pm 21:55 Clear 33 0.8 28 -2.4 79 79 ESE 6 9 30.39 1029 10 16.09344 0 0
10:15 pm 22:15 Clear 33 0.6 29 -1.6 85 85 Calm 30.39 1029 10 16.09344 0 0
10:35 pm 22:35 Clear 33 0.7 28 -2.1 82 82 SSE 3 6 30.39 1029 10 16.09344 0 0
10:55 pm 22:55 Clear 32 0 27 -2.8 82 82 SSE 3 6 30.39 1029 10 16.09344 0 0
11:15 pm 23:15 Clear 34 1 28 -2 81 81 S 3 6 30.39 1029 7 11.265408 0 0
11:35 pm 23:35 Clear 33 0.5 27 -2.6 80 80 S 3 6 30.39 1029 10 16.09344 0 0
11:55 pm 23:55 Clear 32 0.1 27 -3 80 80 Calm 30.39 1029 10 16.09344 0 0

Powered by AerisWeather